Location: Isle of Man Observatory
(54.1776°N, 4.6264°W)
Time: 10:50:42
(UTC+02:00)

ACS3 Solar Sail - Visible Passes

Search period start: 21 May 2026 00:00
Search period end: 31 May 2026 00:00
Orbit: 902 x 937 km, 97.2° (Epoch: 20 May)

Date Brightness Start Highest point End Pass type
(mag) Time Alt. Az. Time Alt. Az. Time Alt. Az.
21 May 2.7 02:17:50 10° NNE 02:23:13 35° E 02:27:09 17° SSE visible
21 May 2.1 04:00:04 10° N 04:05:46 53° WNW 04:10:37 15° SW visible
22 May 2.5 02:26:08 10° NNE 02:31:41 40° E 02:35:41 18° SSE visible
22 May 2.3 04:08:31 10° N 04:14:06 46° WNW 04:19:09 13° SW visible
23 May 2.3 02:34:27 10° NNE 02:40:08 47° E 02:44:13 19° SSE visible
23 May 2.5 04:16:58 10° N 04:22:26 41° WNW 04:27:41 11° SW visible
24 May 3.9 01:03:27 10° ENE 01:04:51 11° ENE 01:06:15 10° E visible
24 May 2.1 02:42:47 10° NNE 02:48:35 54° E 02:52:45 19° S visible
24 May 2.7 04:25:26 10° N 04:30:44 36° WNW 04:36:04 10° SW visible
25 May 3.8 01:10:52 10° NE 01:13:26 13° ENE 01:16:00 10° ESE visible
25 May 2.0 02:51:07 10° NNE 02:57:00 62° E 03:01:17 19° S visible
25 May 2.9 04:33:53 10° N 04:39:02 32° WNW 04:44:10 10° WSW visible
26 May 3.7 01:18:42 10° NE 01:22:00 15° E 01:25:17 10° ESE visible
26 May 1.8 02:59:29 10° NNE 03:05:25 71° E 03:09:48 19° S visible
26 May 3.0 04:42:23 10° N 04:47:19 29° WNW 04:52:16 10° WSW visible
27 May 3.6 01:26:41 10° NE 01:30:32 17° E 01:34:23 10° ESE visible
27 May 1.7 03:07:51 10° NNE 03:13:49 81° ESE 03:18:19 18° S visible
27 May 3.2 04:50:52 10° N 04:55:35 25° NW 05:00:18 10° WSW visible
28 May 3.4 01:34:47 10° NE 01:39:04 20° E 01:43:21 10° SE visible
28 May 1.7 03:16:14 10° NNE 03:22:12 89° WNW 03:26:50 18° SSW visible
28 May 3.3 04:59:23 10° N 05:03:50 23° NW 05:08:18 10° WSW visible
29 May 3.3 01:42:56 10° NE 01:47:35 23° E 01:51:53 11° SE visible
29 May 1.8 03:24:37 10° NNE 03:30:34 79° WNW 03:35:21 17° SSW visible
30 May 3.1 01:51:08 10° NNE 01:56:05 27° E 02:00:23 13° SE visible
30 May 1.9 03:33:02 10° N 03:38:56 70° WNW 03:43:51 15° SSW visible
